| time (UTC) | temp C | wind direction | speed KPH | gust KPH | rain 1hr cm | rain 24hr cm | rain mn cm | humidity % | barometer mb |
| 20260506103057 | 24 | 118 | 9.7 | 14.5 | 0.00 | 0.03 | 0.03 | 98 | 1007.4 |
| 20260506102557 | 24 | 109 | 9.7 | 12.9 | 0.00 | 0.03 | 0.03 | 98 | 1007.5 |
| 20260506101558 | 24 | 123 | 8.0 | 11.3 | 0.00 | 0.03 | 0.03 | 98 | 1007.3 |
| 20260506100557 | 24 | 114 | 8.0 | 9.7 | 0.00 | 0.03 | 0.03 | 98 | 1007.3 |
| 20260506100057 | 24 | 115 | 6.4 | 8.0 | 0.00 | 0.03 | 0.03 | 98 | 1007.3 |
| 20260506095558 | 24 | 127 | 4.8 | 8.0 | 0.00 | 0.03 | 0.03 | 98 | 1007.3 |
| 20260506095057 | 24 | 134 | 6.4 | 9.7 | 0.00 | 0.03 | 0.03 | 98 | 1007.3 |
| 20260506094557 | 24 | 114 | 8.0 | 9.7 | 0.00 | 0.03 | 0.03 | 98 | 1007.2 |
| 20260506094058 | 24 | 109 | 9.7 | 11.3 | 0.00 | 0.03 | 0.03 | 98 | 1007.2 |
| 20260506093558 | 24 | 114 | 8.0 | 11.3 | 0.00 | 0.03 | 0.03 | 98 | 1007.2 |
| 20260506093057 | 24 | 116 | 8.0 | 9.7 | 0.00 | 0.03 | 0.03 | 98 | 1007.2 |
| 20260506092556 | 24 | 115 | 8.0 | 9.7 | 0.00 | 0.03 | 0.03 | 98 | 1007.2 |
| 20260506092057 | 24 | 110 | 8.0 | 9.7 | 0.00 | 0.03 | 0.03 | 98 | 1007.3 |
| 20260506091556 | 24 | 108 | 8.0 | 9.7 | 0.00 | 0.03 | 0.03 | 98 | 1007.3 |
| 20260506091059 | 24 | 112 | 8.0 | 11.3 | 0.00 | 0.03 | 0.03 | 98 | 1007.1 |
| 20260506090057 | 24 | 112 | 8.0 | 11.3 | 0.00 | 0.03 | 0.03 | 98 | 1007.1 |
| 20260506084556 | 24 | 107 | 9.7 | 12.9 | 0.00 | 0.03 | 0.03 | 98 | 1007.1 |
| 20260506083558 | 24 | 117 | 8.0 | 11.3 | 0.00 | 0.03 | 0.03 | 98 | 1007.1 |
| 20260506082556 | 24 | 114 | 9.7 | 12.9 | 0.00 | 0.03 | 0.03 | 98 | 1007.2 |
| 20260506081556 | 24 | 113 | 9.7 | 12.9 | 0.00 | 0.03 | 0.03 | 98 | 1007.2 |
| 20260506081056 | 24 | 112 | 8.0 | 9.7 | 0.00 | 0.03 | 0.03 | 98 | 1007.3 |
| 20260506080556 | 24 | 116 | 9.7 | 12.9 | 0.03 | 0.03 | 0.03 | 98 | 1007.3 |
| 20260506073056 | 24 | 111 | 8.0 | 9.7 | 0.03 | 0.03 | 0.03 | 98 | 1007.6 |
| 20260506072555 | 24 | 110 | 6.4 | 9.7 | 0.03 | 0.03 | 0.03 | 98 | 1007.7 |
| 20260506072056 | 24 | 136 | 4.8 | 8.0 | 0.03 | 0.03 | 0.03 | 96 | 1007.8 |
| 20260506071556 | 24 | 153 | 6.4 | 12.9 | 0.03 | 0.03 | 0.03 | 96 | 1007.9 |
| 20260506071055 | 24 | 148 | 9.7 | 12.9 | 0.03 | 0.03 | 0.03 | 96 | 1007.9 |
| 20260506070555 | 24 | 128 | 9.7 | 12.9 | 0.00 | 0.00 | 0.00 | 95 | 1008.0 |
| 20260506062056 | 25 | 143 | 11.3 | 16.1 | 0.00 | 0.00 | 0.00 | 93 | 1008.3 |
| 20260506061555 | 25 | 148 | 12.9 | 19.3 | 0.00 | 0.00 | 0.00 | 93 | 1008.3 |
| 20260506061055 | 25 | 152 | 11.3 | 16.1 | 0.00 | 0.00 | 0.00 | 93 | 1008.3 |
| 20260506060555 | 25 | 144 | 11.3 | 19.3 | 0.00 | 0.00 | 0.00 | 93 | 1008.3 |
| 20260506051055 | 25 | 140 | 14.5 | 20.9 | 0.00 | 0.00 | 0.00 | 92 | 1007.9 |
| 20260506050554 | 25 | 142 | 16.1 | 25.7 | 0.00 | 0.00 | 0.00 | 92 | 1007.9 |
| 20260506045053 | 25 | 137 | 17.7 | 25.7 | 0.00 | 0.00 | 0.00 | 92 | 1007.9 |
| 20260506044054 | 25 | 137 | 19.3 | 24.1 | 0.00 | 0.00 | 0.00 | 92 | 1007.8 |
| 20260506043554 | 25 | 141 | 19.3 | 29.0 | 0.00 | 0.00 | 0.00 | 93 | 1007.7 |
| 20260506043054 | 25 | 137 | 17.7 | 25.7 | 0.00 | 0.00 | 0.00 | 92 | 1007.7 |
| 20260506042554 | 25 | 136 | 19.3 | 29.0 | 0.00 | 0.00 | 0.00 | 92 | 1007.7 |
| 20260506041553 | 25 | 143 | 20.9 | 32.2 | 0.00 | 0.00 | 0.00 | 92 | 1007.6 |
| 20260506041053 | 25 | 139 | 17.7 | 29.0 | 0.00 | 0.00 | 0.00 | 92 | 1007.6 |
| 20260506040053 | 25 | 136 | 16.1 | 24.1 | 0.00 | 0.00 | 0.00 | 92 | 1007.6 |
| 20260506035553 | 25 | 133 | 19.3 | 32.2 | 0.00 | 0.00 | 0.00 | 92 | 1007.7 |
| 20260506035054 | 25 | 135 | 19.3 | 29.0 | 0.00 | 0.00 | 0.00 | 92 | 1007.6 |
| 20260506034553 | 25 | 138 | 19.3 | 25.7 | 0.00 | 0.00 | 0.00 | 92 | 1007.6 |
| 20260506034054 | 25 | 142 | 17.7 | 24.1 | 0.00 | 0.00 | 0.00 | 92 | 1007.6 |
| 20260506033553 | 25 | 137 | 17.7 | 24.1 | 0.00 | 0.00 | 0.00 | 92 | 1007.6 |
| 20260506033053 | 25 | 134 | 16.1 | 24.1 | 0.00 | 0.00 | 0.00 | 92 | 1007.6 |
| 20260506032554 | 25 | 139 | 14.5 | 22.5 | 0.00 | 0.00 | 0.00 | 92 | 1007.6 |
| 20260506032053 | 25 | 143 | 16.1 | 20.9 | 0.00 | 0.00 | 0.00 | 92 | 1007.6 |
| 20260506031053 | 25 | 146 | 11.3 | 19.3 | 0.00 | 0.00 | 0.00 | 92 | 1007.6 |
| 20260506030552 | 25 | 138 | 16.1 | 19.3 | 0.00 | 0.00 | 0.00 | 92 | 1007.5 |
| 20260506030052 | 25 | 135 | 14.5 | 20.9 | 0.00 | 0.00 | 0.00 | 92 | 1007.4 |
| 20260506025553 | 25 | 138 | 16.1 | 20.9 | 0.00 | 0.00 | 0.00 | 91 | 1007.4 |
| 20260506024553 | 25 | 138 | 14.5 | 19.3 | 0.00 | 0.00 | 0.00 | 91 | 1007.2 |
| 20260506024053 | 25 | 145 | 14.5 | 24.1 | 0.00 | 0.00 | 0.00 | 91 | 1007.2 |
| 20260506023552 | 25 | 139 | 12.9 | 19.3 | 0.00 | 0.00 | 0.00 | 91 | 1007.0 |
| 20260506023052 | 25 | 144 | 16.1 | 24.1 | 0.00 | 0.00 | 0.00 | 91 | 1007.0 |
| 20260506022552 | 25 | 135 | 16.1 | 20.9 | 0.00 | 0.00 | 0.00 | 91 | 1007.0 |
| 20260506022053 | 25 | 140 | 14.5 | 24.1 | 0.00 | 0.00 | 0.00 | 91 | 1007.0 |
| 20260506021552 | 25 | 150 | 14.5 | 20.9 | 0.00 | 0.00 | 0.00 | 91 | 1006.9 |
| 20260506021052 | 25 | 141 | 14.5 | 20.9 | 0.00 | 0.00 | 0.00 | 91 | 1006.8 |
| 20260506020552 | 25 | 147 | 17.7 | 24.1 | 0.00 | 0.00 | 0.00 | 89 | 1006.7 |
| 20260506020051 | 25 | 139 | 16.1 | 20.9 | 0.00 | 0.00 | 0.00 | 89 | 1006.7 |
| 20260506015052 | 25 | 145 | 16.1 | 24.1 | 0.00 | 0.00 | 0.00 | 89 | 1006.6 |
| 20260506014052 | 25 | 149 | 16.1 | 24.1 | 0.00 | 0.00 | 0.00 | 89 | 1006.3 |
| 20260506013553 | 25 | 144 | 14.5 | 22.5 | 0.00 | 0.00 | 0.00 | 89 | 1006.4 |
| 20260506013052 | 25 | 149 | 14.5 | 20.9 | 0.00 | 0.00 | 0.00 | 89 | 1006.4 |
| 20260506012551 | 25 | 145 | 17.7 | 25.7 | 0.00 | 0.00 | 0.00 | 89 | 1006.3 |
| 20260506012052 | 25 | 141 | 16.1 | 29.0 | 0.00 | 0.00 | 0.00 | 89 | 1006.3 |
| 20260506011051 | 25 | 143 | 17.7 | 24.1 | 0.00 | 0.00 | 0.00 | 88 | 1006.1 |
| 20260506010551 | 25 | 136 | 17.7 | 25.7 | 0.00 | 0.00 | 0.00 | 88 | 1006.0 |
| 20260506010051 | 26 | 142 | 14.5 | 24.1 | 0.00 | 0.00 | 0.00 | 87 | 1006.0 |
| 20260506005551 | 26 | 141 | 16.1 | 32.2 | 0.00 | 0.00 | 0.00 | 87 | 1006.0 |
| 20260506003550 | 26 | 137 | 16.1 | 22.5 | 0.00 | 0.00 | 0.00 | 86 | 1005.7 |
| 20260506003051 | 26 | 148 | 14.5 | 22.5 | 0.00 | 0.00 | 0.00 | 86 | 1005.6 |
| 20260506002550 | 26 | 145 | 16.1 | 25.7 | 0.00 | 0.00 | 0.00 | 85 | 1005.6 |
| 20260506002051 | 26 | 151 | 19.3 | 29.0 | 0.00 | 0.00 | 0.00 | 85 | 1005.6 |
| 20260506001551 | 26 | 150 | 22.5 | 33.8 | 0.00 | 0.00 | 0.00 | 84 | 1005.7 |
| 20260506001051 | 26 | 146 | 19.3 | 32.2 | 0.00 | 0.00 | 0.00 | 84 | 1005.6 |
| 20260506000050 | 26 | 141 | 22.5 | 37.0 | 0.00 | 0.00 | 0.00 | 84 | 1005.6 |
| 20260505235550 | 26 | 150 | 19.3 | 37.0 | 0.00 | 0.00 | 0.00 | 84 | 1005.6 |
| 20260505234550 | 26 | 156 | 20.9 | 35.4 | 0.00 | 0.00 | 0.00 | 82 | 1005.6 |
| 20260505234051 | 26 | 150 | 17.7 | 32.2 | 0.00 | 0.00 | 0.00 | 83 | 1005.6 |
| 20260505233550 | 26 | 147 | 20.9 | 37.0 | 0.00 | 0.00 | 0.00 | 82 | 1005.6 |
| 20260505233050 | 26 | 145 | 19.3 | 32.2 | 0.00 | 0.00 | 0.00 | 82 | 1005.7 |
| 20260505232550 | 27 | 154 | 20.9 | 32.2 | 0.00 | 0.00 | 0.00 | 82 | 1005.6 |
| 20260505231550 | 27 | 154 | 16.1 | 29.0 | 0.00 | 0.00 | 0.00 | 82 | 1005.7 |
| 20260505231051 | 27 | 144 | 17.7 | 24.1 | 0.00 | 0.00 | 0.00 | 82 | 1005.7 |
| 20260505230550 | 27 | 141 | 19.3 | 32.2 | 0.00 | 0.00 | 0.00 | 82 | 1005.7 |
| 20260505230049 | 27 | 144 | 19.3 | 29.0 | 0.00 | 0.00 | 0.00 | 81 | 1005.7 |
| 20260505225550 | 27 | 143 | 19.3 | 33.8 | 0.00 | 0.00 | 0.00 | 81 | 1005.7 |
| 20260505225050 | 27 | 147 | 16.1 | 32.2 | 0.00 | 0.00 | 0.00 | 81 | 1005.9 |
| 20260505224550 | 27 | 157 | 16.1 | 32.2 | 0.00 | 0.00 | 0.00 | 82 | 1006.0 |
| 20260505224050 | 27 | 148 | 20.9 | 32.2 | 0.00 | 0.00 | 0.00 | 81 | 1006.0 |
| 20260505223550 | 27 | 163 | 17.7 | 29.0 | 0.00 | 0.00 | 0.00 | 81 | 1006.0 |
| 20260505223049 | 27 | 158 | 19.3 | 32.2 | 0.00 | 0.00 | 0.00 | 81 | 1006.0 |
| 20260505222049 | 27 | 150 | 14.5 | 29.0 | 0.00 | 0.00 | 0.00 | 82 | 1006.1 |
| 20260505221549 | 27 | 150 | 17.7 | 29.0 | 0.00 | 0.00 | 0.00 | 81 | 1006.1 |
| 20260505221050 | 27 | 142 | 22.5 | 32.2 | 0.00 | 0.00 | 0.00 | 81 | 1006.1 |
| 20260505220549 | 27 | 145 | 20.9 | 32.2 | 0.00 | 0.00 | 0.00 | 80 | 1006.1 |
| 20260505220048 | 27 | 148 | 20.9 | 32.2 | 0.00 | 0.00 | 0.00 | 79 | 1006.1 |
| 20260505215549 | 27 | 146 | 20.9 | 32.2 | 0.00 | 0.00 | 0.00 | 80 | 1006.1 |
| 20260505214548 | 27 | 156 | 19.3 | 32.2 | 0.00 | 0.00 | 0.00 | 79 | 1006.1 |
| 20260505214050 | 27 | 147 | 19.3 | 33.8 | 0.00 | 0.00 | 0.00 | 80 | 1006.2 |
| 20260505213548 | 27 | 146 | 20.9 | 33.8 | 0.00 | 0.00 | 0.00 | 79 | 1006.4 |
| 20260505213049 | 27 | 139 | 16.1 | 25.7 | 0.00 | 0.00 | 0.00 | 80 | 1006.5 |
| 20260505212549 | 27 | 154 | 17.7 | 29.0 | 0.00 | 0.00 | 0.00 | 79 | 1006.6 |
| 20260505212048 | 27 | 149 | 19.3 | 32.2 | 0.00 | 0.00 | 0.00 | 79 | 1006.7 |
| 20260505211548 | 27 | 164 | 19.3 | 37.0 | 0.00 | 0.00 | 0.00 | 79 | 1006.7 |
| 20260505211049 | 27 | 142 | 20.9 | 40.2 | 0.00 | 0.00 | 0.00 | 79 | 1006.7 |
| 20260505210548 | 27 | 140 | 24.1 | 32.2 | 0.00 | 0.00 | 0.00 | 78 | 1006.8 |
| 20260505210048 | 27 | 141 | 20.9 | 35.4 | 0.00 | 0.00 | 0.00 | 78 | 1006.8 |
| 20260505205049 | 28 | 137 | 20.9 | 37.0 | 0.00 | 0.00 | 0.00 | 78 | 1006.9 |
| 20260505204547 | 28 | 150 | 24.1 | 37.0 | 0.00 | 0.00 | 0.00 | 77 | 1006.9 |
| 20260505204048 | 28 | 147 | 16.1 | 24.1 | 0.00 | 0.00 | 0.00 | 77 | 1006.9 |
| 20260505203549 | 28 | 143 | 25.7 | 33.8 | 0.00 | 0.00 | 0.00 | 78 | 1007.0 |
| 20260505202048 | 27 | 142 | 24.1 | 33.8 | 0.00 | 0.00 | 0.00 | 79 | 1007.2 |
| 20260505201547 | 27 | 145 | 22.5 | 35.4 | 0.00 | 0.00 | 0.00 | 79 | 1007.2 |
| 20260505201048 | 27 | 147 | 25.7 | 33.8 | 0.00 | 0.00 | 0.00 | 79 | 1007.3 |
| 20260505200047 | 28 | 151 | 22.5 | 35.4 | 0.00 | 0.00 | 0.00 | 80 | 1007.4 |
| 20260505195547 | 27 | 149 | 22.5 | 33.8 | 0.00 | 0.00 | 0.00 | 82 | 1007.5 |
| 20260505194547 | 27 | 165 | 19.3 | 32.2 | 0.00 | 0.00 | 0.00 | 82 | 1007.6 |
| 20260505194047 | 27 | 148 | 14.5 | 25.7 | 0.00 | 0.00 | 0.00 | 82 | 1007.7 |
| 20260505193547 | 27 | 144 | 16.1 | 24.1 | 0.00 | 0.00 | 0.00 | 82 | 1007.8 |
| 20260505193047 | 27 | 143 | 16.1 | 22.5 | 0.00 | 0.00 | 0.00 | 82 | 1007.8 |
| 20260505192547 | 27 | 141 | 16.1 | 20.9 | 0.00 | 0.00 | 0.00 | 82 | 1007.8 |
| 20260505192047 | 26 | 150 | 12.9 | 22.5 | 0.00 | 0.00 | 0.00 | 84 | 1007.9 |
| 20260505191547 | 27 | 154 | 14.5 | 22.5 | 0.00 | 0.00 | 0.00 | 82 | 1007.9 |
| 20260505191047 | 27 | 150 | 14.5 | 32.2 | 0.00 | 0.00 | 0.00 | 82 | 1007.9 |
| 20260505190547 | 27 | 156 | 16.1 | 25.7 | 0.00 | 0.00 | 0.00 | 82 | 1007.9 |
| 20260505190046 | 27 | 153 | 12.9 | 19.3 | 0.00 | 0.00 | 0.00 | 82 | 1008.0 |
| 20260505185549 | 26 | 157 | 12.9 | 19.3 | 0.00 | 0.00 | 0.00 | 82 | 1008.0 |
| 20260505185046 | 26 | 174 | 14.5 | 24.1 | 0.00 | 0.00 | 0.00 | 82 | 1008.0 |
| 20260505184546 | 26 | 151 | 14.5 | 29.0 | 0.00 | 0.00 | 0.00 | 84 | 1008.1 |
| 20260505184046 | 26 | 142 | 16.1 | 32.2 | 0.00 | 0.00 | 0.00 | 82 | 1008.2 |
| 20260505183547 | 26 | 138 | 19.3 | 32.2 | 0.00 | 0.00 | 0.00 | 82 | 1008.2 |
| 20260505183047 | 27 | 145 | 16.1 | 29.0 | 0.00 | 0.00 | 0.00 | 84 | 1008.2 |
| 20260505182046 | 27 | 137 | 19.3 | 32.2 | 0.00 | 0.00 | 0.00 | 83 | 1008.1 |
| 20260505181547 | 27 | 141 | 14.5 | 24.1 | 0.00 | 0.00 | 0.00 | 82 | 1008.1 |
| 20260505181046 | 27 | 163 | 16.1 | 24.1 | 0.00 | 0.00 | 0.00 | 80 | 1008.2 |
| 20260505180047 | 27 | 138 | 16.1 | 25.7 | 0.00 | 0.00 | 0.00 | 81 | 1008.2 |
| 20260505175545 | 27 | 152 | 19.3 | 32.2 | 0.00 | 0.00 | 0.00 | 80 | 1008.2 |
| 20260505175046 | 27 | 160 | 14.5 | 25.7 | 0.00 | 0.00 | 0.00 | 80 | 1008.2 |
| 20260505174046 | 26 | 165 | 14.5 | 25.7 | 0.00 | 0.00 | 0.00 | 81 | 1008.3 |
| 20260505173546 | 26 | 159 | 9.7 | 19.3 | 0.00 | 0.00 | 0.00 | 82 | 1008.3 |
| 20260505173046 | 27 | 165 | 9.7 | 19.3 | 0.00 | 0.00 | 0.00 | 81 | 1008.4 |
| 20260505172545 | 27 | 178 | 14.5 | 20.9 | 0.00 | 0.00 | 0.00 | 80 | 1008.5 |
| 20260505172046 | 27 | 182 | 9.7 | 20.9 | 0.00 | 0.00 | 0.00 | 81 | 1008.5 |
| 20260505171546 | 26 | 172 | 11.3 | 25.7 | 0.00 | 0.00 | 0.00 | 81 | 1008.6 |
| 20260505171045 | 27 | 180 | 11.3 | 25.7 | 0.00 | 0.00 | 0.00 | 80 | 1008.6 |
| 20260505170046 | 26 | 174 | 14.5 | 22.5 | 0.00 | 0.00 | 0.00 | 82 | 1008.6 |
| 20260505165546 | 26 | 183 | 9.7 | 22.5 | 0.00 | 0.00 | 0.00 | 84 | 1008.7 |
| 20260505165045 | 26 | 177 | 8.0 | 16.1 | 0.00 | 0.00 | 0.00 | 85 | 1008.8 |
| 20260505164546 | 26 | 174 | 12.9 | 19.3 | 0.00 | 0.00 | 0.00 | 85 | 1008.8 |
| 20260505164045 | 26 | 160 | 8.0 | 14.5 | 0.00 | 0.00 | 0.00 | 86 | 1008.8 |
| 20260505163545 | 26 | 189 | 6.4 | 14.5 | 0.00 | 0.00 | 0.00 | 86 | 1008.7 |
| 20260505163045 | 26 | 197 | 6.4 | 16.1 | 0.00 | 0.00 | 0.00 | 87 | 1008.7 |
| 20260505162544 | 26 | 187 | 4.8 | 14.5 | 0.00 | 0.00 | 0.00 | 87 | 1008.7 |
| 20260505162045 | 26 | 187 | 8.0 | 14.5 | 0.00 | 0.00 | 0.00 | 87 | 1008.8 |
| 20260505161545 | 25 | 190 | 9.7 | 16.1 | 0.00 | 0.00 | 0.00 | 89 | 1008.7 |
| 20260505161044 | 25 | 186 | 9.7 | 19.3 | 0.00 | 0.00 | 0.00 | 89 | 1008.7 |
| 20260505153044 | 25 | 163 | 14.5 | 24.1 | 0.00 | 0.00 | 0.00 | 88 | 1008.6 |
| 20260505152545 | 25 | 165 | 11.3 | 22.5 | 0.00 | 0.00 | 0.00 | 89 | 1008.6 |
| 20260505152044 | 25 | 170 | 11.3 | 25.7 | 0.00 | 0.00 | 0.00 | 89 | 1008.6 |
| 20260505151044 | 25 | 159 | 8.0 | 16.1 | 0.00 | 0.00 | 0.00 | 92 | 1008.6 |
| 20260505140543 | 24 | 166 | 9.7 | 19.3 | 0.00 | 0.00 | 0.00 | 92 | 1008.5 |
| 20260505124543 | 23 | 150 | 9.7 | 14.5 | 0.00 | 0.00 | 0.00 | 95 | 1008.0 |
| 20260505124043 | 23 | 176 | 8.0 | 16.1 | 0.00 | 0.00 | 0.00 | 95 | 1008.1 |
| 20260505123042 | 23 | 154 | 9.7 | 16.1 | 0.00 | 0.00 | 0.00 | 95 | 1008.0 |
| 20260505122542 | 23 | 148 | 8.0 | 16.1 | 0.00 | 0.00 | 0.00 | 95 | 1008.0 |
| 20260505121542 | 23 | 152 | 8.0 | 16.1 | 0.00 | 0.00 | 0.00 | 95 | 1007.9 |
| 20260505121042 | 22 | 156 | 8.0 | 14.5 | 0.00 | 0.00 | 0.00 | 96 | 1007.8 |
| 20260505120543 | 22 | 155 | 8.0 | 12.9 | 0.00 | 0.00 | 0.00 | 96 | 1007.8 |
| 20260505120041 | 22 | 167 | 6.4 | 12.9 | 0.00 | 0.00 | 0.00 | 96 | 1007.9 |
| 20260505115042 | 22 | 159 | 9.7 | 14.5 | 0.00 | 0.00 | 0.00 | 95 | 1007.9 |
| 20260505114542 | 22 | 159 | 8.0 | 12.9 | 0.00 | 0.00 | 0.00 | 96 | 1007.9 |
| 20260505114042 | 22 | 152 | 6.4 | 11.3 | 0.00 | 0.00 | 0.00 | 96 | 1007.9 |
| 20260505113541 | 22 | 160 | 9.7 | 14.5 | 0.00 | 0.00 | 0.00 | 95 | 1007.9 |
| 20260505113042 | 22 | 151 | 9.7 | 19.3 | 0.00 | 0.00 | 0.00 | 96 | 1007.9 |
| 20260505112541 | 22 | 146 | 9.7 | 16.1 | 0.00 | 0.00 | 0.00 | 96 | 1007.9 |
| 20260505112041 | 22 | 148 | 9.7 | 16.1 | 0.00 | 0.00 | 0.00 | 96 | 1007.8 |
| 20260505111541 | 22 | 158 | 8.0 | 12.9 | 0.00 | 0.00 | 0.00 | 96 | 1007.7 |
| 20260505111041 | 22 | 144 | 8.0 | 16.1 | 0.00 | 0.00 | 0.00 | 96 | 1007.7 |
| 20260505110541 | 22 | 147 | 8.0 | 14.5 | 0.00 | 0.00 | 0.00 | 96 | 1007.7 |